Location: IoMAS Observatory
(54.1780°N, 4.6265°W)
Time: 09:47:21
(UTC+01:00)

ISS - Pass Details

Date: 29 November 2021
Orbit: 413 x 422 km, 51.6° (Epoch: 23 January)

Event Time Altitude Azimuth Distance (km) Brightness Sun altitude
Rises 20:08:23 0° 274° (W) 2,383 1.4 -26.3°
Reaches altitude 10° 20:10:33 10° 267° (W) 1,515 0.1 -26.6°
Enters shadow 20:12:13 25° 252° (WSW) 909 -1.5 -26.8°
